Flag for Canada Weather past 2 weeks in Rainy River, Ontario, Canada

Now
69 °F

Sunny.


Feels Like: 69 °F
Forecast: 56 / 69 °F
Wind: 9 mph from Northwest

Location: Baudette International Airport

Current Time: Sep 1, 2014 at 2:33:29 PM

Latest Report: Sep 1, 2014 at 1:53 PM


Visibility: 10 mi

Pressure: 29.67 "Hg

Humidity: 57%

Dew point: 53 °F

Location of Rainy RiverLocation

Historic Weather in Rainy River — Graph

°F

Rainy River temperature yesterday

Maximum temperature yesterday: 67 °F (at 6:53 PM)
Minimum temperature yesterday: 58 °F (at 12:53 AM)
Average temperature yesterday: 62 °F

Past Weeks' High & Low Weather Summary

 TemperatureHumidityPressure
High81 °F (Aug 24, 4:53 PM)100% (Aug 18, 11:00 PM)30.21 "Hg (Aug 18, 11:00 PM)
Low45 °F (Aug 27, 12:53 AM)42% (Aug 27, 3:53 PM)29.54 "Hg (Aug 31, 4:53 PM)
Average63 °F84%29.88 "Hg
* Reported Aug 17 12:53 PM — Sep 1 12:53 PM, Rainy River, Weather by CustomWeather, © 2014

Note: Actual official high and low records may vary slightly from our data, if they occured in-between our weather recording intervals... More about our weather records

Advertising

Rainy River weather history for previous 24 hours

 ConditionsComfort  
Time TempWeatherWind HumidityBarometerVisibility
12:53 PM
Sep 1
67 °FPassing clouds.12 mph61%29.67 "Hg10 mi
11:53 AM64 °FPartly sunny.16 mph70%29.66 "Hg10 mi
10:53 AM63 °FScattered clouds.10 mph75%29.65 "Hg10 mi
9:53 AM60 °FMore clouds than sun.9 mph83%29.64 "Hg10 mi
8:59 AM59 °FMore clouds than sun.6 mph90%29.64 "Hg10 mi
8:03 AM59 °FLow clouds.3 mph90%29.63 "Hg10 mi
7:53 AM58 °FOvercast.5 mph93%29.63 "Hg10 mi
6:53 AM58 °FMostly cloudy.5 mph93%29.61 "Hg10 mi
5:53 AM59 °FOvercast.6 mph90%29.60 "Hg10 mi
4:53 AM59 °FMostly cloudy.8 mph93%29.60 "Hg10 mi
3:53 AM59 °FOvercast.7 mph93%29.59 "Hg10 mi
2:53 AM60 °FOvercast.3 mph90%29.61 "Hg10 mi
1:53 AM59 °FPassing clouds.No wind93%29.59 "Hg10 mi
12:53 AM60 °FOvercast.No wind90%29.59 "Hg10 mi
11:53 PM
Aug 31
61 °FMostly cloudy.No wind90%29.60 "Hg10 mi
10:53 PM62 °FMostly cloudy.5 mph90%29.60 "Hg10 mi
9:53 PM63 °FMostly cloudy.6 mph90%29.56 "Hg10 mi
9:04 PM63 °FPassing clouds.3 mph90%29.57 "Hg10 mi
8:53 PM64 °FScattered clouds.No wind87%29.56 "Hg10 mi
7:53 PM65 °FMostly cloudy.6 mph91%29.56 "Hg10 mi
6:53 PM67 °FCloudy.6 mph87%29.55 "Hg10 mi
5:53 PM66 °FMostly cloudy.12 mph90%29.55 "Hg10 mi
4:53 PM66 °FOvercast.9 mph93%29.54 "Hg9 mi
3:53 PM66 °FLight rain. Fog.9 mph90%29.54 "Hg6 mi
2:53 PM65 °FOvercast.6 mph91%29.54 "Hg8 mi
Weather by CustomWeather, © 2014

See weather overviewHow to use our weather pages